DW2144 Weather Reports


Display with metric or nautical units.
time (UTC)temp
F
wind
direction
speed
MPH
gust
MPH
rain 1hr
in
rain 24hr
in
rain mn
in
humidity
%
barometer
mb
20260831113010 53 332 0.0 0.0 0.00 0.00 0.00 86 1010.8
20260831111508 52 332 0.0 0.0 0.00 0.00 0.00 86 1010.7
20260831110012 51 332 0.0 0.0 0.00 0.00 0.00 86 1010.7
20260831104518 51 332 0.0 0.0 0.00 0.00 0.00 85 1010.6
20260831103013 51 332 0.0 0.0 0.00 0.00 0.00 85 1010.6
20260831101504 51 332 0.0 0.0 0.00 0.00 0.00 85 1010.6
20260831100003 51 332 0.0 0.0 0.00 0.00 0.00 84 1010.4
20260831094501 51 332 0.0 0.0 0.00 0.00 0.00 85 1010.3
20260831093112 52 332 0.0 0.0 0.00 0.00 0.00 85 1010.3
20260831091558 52 332 0.0 0.0 0.00 0.00 0.00 85 1010.4
20260831090114 52 332 0.0 0.0 0.00 0.00 0.00 84 1010.5
20260831084554 53 332 0.0 0.0 0.00 0.00 0.00 84 1010.6
20260831083106 53 332 0.0 0.0 0.00 0.00 0.00 84 1010.6
20260831081559 53 332 0.0 0.0 0.00 0.00 0.00 84 1010.5
20260831080123 54 332 0.0 0.0 0.00 0.00 0.00 84 1010.7
20260831074548 54 332 0.0 0.0 0.00 0.00 0.00 83 1010.8
20260831073046 55 332 0.0 0.0 0.00 0.00 0.00 83 1010.7
20260831071547 55 332 0.0 0.0 0.00 0.00 0.00 81 1010.6
20260831070043 55 332 0.0 0.0 0.00 0.00 0.00 80 1010.5
20260831064540 56 332 0.0 0.0 0.00 0.00 0.00 79 1010.4
20260831063041 57 332 0.0 0.0 0.00 0.00 0.00 78 1010.4
20260831061542 58 332 0.0 0.0 0.00 0.00 0.00 76 1010.4
20260831060040 59 332 0.0 0.0 0.00 0.00 0.00 76 1010.5
20260831054539 59 332 0.0 0.0 0.00 0.00 0.00 75 1010.4
20260831053106 60 332 0.0 0.0 0.00 0.00 0.00 73 1010.3
20260831051539 61 332 0.0 0.0 0.00 0.00 0.00 72 1010.2
20260831050038 62 332 0.0 0.0 0.00 0.00 0.00 71 1010.2
20260831044624 63 332 0.0 0.0 0.00 0.00 0.00 69 1010.1
20260831043036 64 332 0.0 0.0 0.00 0.00 0.00 66 1009.9
20260831041537 65 332 0.0 0.0 0.00 0.00 0.00 64 1009.7
20260831040036 66 332 0.0 0.0 0.00 0.00 0.00 62 1009.5
20260831034534 67 332 0.0 0.0 0.00 0.00 0.00 59 1009.4
20260831033042 69 332 0.0 0.0 0.00 0.00 0.00 56 1009.3
20260831031537 70 332 0.0 1.0 0.00 0.00 0.00 54 1009.1
20260831030033 71 332 0.0 0.0 0.00 0.00 0.00 53 1009.0
20260831024533 72 332 0.0 1.0 0.00 0.00 0.00 52 1009.1
20260831023032 74 332 0.0 1.0 0.00 0.00 0.00 49 1008.9
20260831021532 75 332 0.0 1.0 0.00 0.00 0.00 47 1008.9
20260831020031 77 332 0.0 2.0 0.00 0.00 0.00 45 1009.0
20260831014530 78 327 0.0 3.0 0.00 0.00 0.00 43 1009.0
20260831013030 79 327 0.0 4.0 0.00 0.00 0.00 42 1008.9
20260831011530 80 328 0.0 5.0 0.00 0.00 0.00 41 1009.1
20260831010051 81 328 0.0 5.0 0.00 0.00 0.00 40 1009.1
20260831004528 81 329 0.0 5.0 0.00 0.00 0.00 40 1009.0
20260831003031 82 355 0.0 4.0 0.00 0.00 0.00 40 1009.1
20260831001527 82 28 0.0 5.0 0.00 0.00 0.00 39 1009.2
20260831000027 83 335 0.0 4.0 0.00 0.00 0.00 39 1009.2
20260830234527 83 313 0.0 6.0 0.00 0.00 0.00 39 1008.9
20260830233034 84 344 1.0 6.0 0.00 0.00 0.00 38 1009.1
20260830231524 84 324 0.0 5.0 0.00 0.00 0.00 39 1009.0
20260830230022 84 329 0.0 6.0 0.00 0.00 0.00 39 1009.0
20260830224520 84 285 0.0 4.0 0.00 0.00 0.00 39 1009.2
20260830223017 85 341 0.0 5.0 0.00 0.00 0.00 39 1009.6
20260830221515 85 314 0.0 4.0 0.00 0.00 0.00 38 1009.6
20260830220011 84 315 0.0 2.0 0.00 0.00 0.00 37 1009.9
20260830214506 84 314 0.0 5.0 0.00 0.00 0.00 36 1010.2
20260830213002 83 360 0.0 4.0 0.00 0.00 0.00 38 1010.4
20260830211606 83 330 1.0 5.0 0.00 0.00 0.00 37 1010.7
20260830210054 83 13 1.0 4.0 0.00 0.00 0.00 38 1010.8
20260830204551 82 360 0.0 5.0 0.00 0.00 0.00 39 1010.9
20260830203050 81 22 0.0 1.0 0.00 0.00 0.00 41 1011.0
20260830201544 80 18 0.0 3.0 0.00 0.00 0.00 43 1011.4
20260830200041 79 19 0.0 1.0 0.00 0.00 0.00 45 1011.4
20260830194537 78 19 0.0 1.0 0.00 0.00 0.00 47 1011.6
20260830193036 77 19 0.0 2.0 0.00 0.00 0.00 48 1011.6
20260830191535 76 19 0.0 1.0 0.00 0.00 0.00 50 1011.9
20260830190029 75 19 0.0 1.0 0.00 0.00 0.00 53 1012.0
20260830184536 73 118 0.0 2.0 0.00 0.00 0.00 54 1012.2
20260830183020 71 351 0.0 1.0 0.00 0.00 0.00 60 1012.3
20260830181517 70 351 0.0 1.0 0.00 0.00 0.00 63 1012.3
20260830180016 68 350 0.0 1.0 0.00 0.00 0.00 66 1012.5
20260830174510 66 350 0.0 1.0 0.00 0.00 0.00 68 1012.5
20260830173005 65 360 0.0 1.0 0.00 0.00 0.00 71 1012.6
20260830171503 64 347 0.0 1.0 0.00 0.00 0.00 75 1012.5
20260830170057 62 355 0.0 0.0 0.00 0.00 0.00 80 1012.5
20260830164552 58 355 0.0 0.0 0.00 0.00 0.00 85 1012.6
20260830163050 56 355 0.0 0.0 0.00 0.00 0.00 86 1012.7
20260830161604 55 355 0.0 0.0 0.00 0.00 0.00 86 1012.8
20260830160048 53 355 0.0 0.0 0.00 0.00 0.00 85 1012.8
20260830154548 52 355 0.0 0.0 0.00 0.00 0.00 84 1012.9
20260830153048 50 355 0.0 0.0 0.00 0.00 0.00 85 1012.9
20260830151547 49 355 0.0 0.0 0.00 0.00 0.00 86 1013.0
20260830150110 49 355 0.0 0.0 0.00 0.00 0.00 86 1012.8
20260830144542 48 355 0.0 0.0 0.00 0.00 0.00 86 1012.8
20260830143044 48 355 0.0 0.0 0.00 0.00 0.00 86 1012.6
20260830141539 48 355 0.0 0.0 0.00 0.00 0.00 86 1012.4
20260830140038 48 355 0.0 0.0 0.00 0.00 0.00 85 1012.2
20260830134540 49 355 0.0 0.0 0.00 0.00 0.00 85 1012.1
20260830133034 49 355 0.0 0.0 0.00 0.00 0.00 85 1011.9
20260830131531 49 355 0.0 0.0 0.00 0.00 0.00 85 1011.7
20260830130032 49 355 0.0 0.0 0.00 0.00 0.00 84 1011.7
20260830124528 49 355 0.0 0.0 0.00 0.00 0.00 84 1011.7
20260830123026 50 355 0.0 0.0 0.00 0.00 0.00 84 1011.6
20260830121524 50 355 0.0 0.0 0.00 0.00 0.00 84 1011.5
20260830120024 50 355 0.0 0.0 0.00 0.00 0.00 83 1011.4
20260830114521 50 355 0.0 0.0 0.00 0.00 0.00 83 1011.5